Weather History for CVOO - December, 2013

Change the Weather History Date:

Monday, December 23, 2013

  Actual Average Record
Temperature  
Mean Temperature 43 °F -  
Max Temperature 51 °F - - ()
Min Temperature 35 °F - - ()
Degree Days  
Heating Degree Days 22    
Moisture  
Dew Point 40 °F    
Average Humidity 88    
Maximum Humidity 100    
Minimum Humidity 57    
Precipitation  
Precipitation 0.08 in - - ()
Sea Level Pressure  
Sea Level Pressure 30.21 in    
Wind  
Wind Speed 3 mph ()    
Max Wind Speed 10 mph    
Max Gust Speed 23 mph    
T = Trace of Precipitation, MM = Missing Value Source: Averaged Metar Reports

Daily Weather History Graph

Daily Weather History Graph

Search for Another Location

Airport or City:

Trip Planner

Search our weather history database for the weather conditions in past years. The results will help you decide how hot, cold, wet, or windy it might be!

Date:

Astronomy

Dec. 23, 2013 Rise Set
Actual Time 8:06 AM PST 4:21 PM PST
Civil Twilight 7:29 AM PST 4:59 PM PST
Nautical Twilight 6:48 AM PST 5:39 PM PST
Astronomical Twilight 6:10 AM PST 6:18 PM PST
Moon 11:07 PM PST (12/23) 11:06 AM PST (12/23)
Length of Visible Light 9h 29m
Length of Day
8h 15m
Waning Gibbous, 67% of the Moon is Illuminated
Dec 23
Waning Gibbous
Dec 25
Last Quarter
Jan 1
New
Jan 7
First Quarter
Jan 15
Full

Hourly Weather History & Observations

Time (PST) Temp. Dew Point Humidity Pressure Visibility Wind Dir Wind Speed Gust Speed Precip Events Conditions
12:00 AM 39.0 °F 39.0 °F 100% 30.19 in - South 1.2 mph - N/A   Unknown
1:00 AM 39.0 °F 39.0 °F 100% 30.17 in - South 2.3 mph - N/A   Unknown
2:00 AM 41.0 °F 41.0 °F 100% 30.14 in - West 1.2 mph - 0.01 in   Unknown
3:00 AM 43.7 °F 43.7 °F 100% 30.12 in - South 1.2 mph - 0.04 in   Unknown
4:00 AM 45 °F 45 °F 100% 30.12 in - WSW 2.3 mph - -  
4:00 AM 45.1 °F 45.1 °F 100% 30.12 in - West 2.3 mph - 0.02 in   Unknown
5:00 AM 45.5 °F 45.5 °F 100% 30.11 in - WSW 2.3 mph - 0.00 in   Unknown
6:00 AM 45.0 °F 45.0 °F 100% 30.10 in - South 2.3 mph - N/A   Unknown
7:00 AM 45.3 °F 45.3 °F 100% 30.07 in - South 1.2 mph - N/A   Unknown
8:00 AM 44.1 °F 44.1 °F 100% 30.08 in - SSW 1.2 mph - 0.00 in   Unknown
9:00 AM 42.1 °F 42.1 °F 100% 30.08 in - WSW 1.2 mph - N/A   Unknown
10:00 AM 47 °F 47 °F 100% 30.11 in - SSW 2.3 mph - -  
10:00 AM 47.1 °F 47.1 °F 100% 30.11 in - South 1.2 mph - 0.04 in   Unknown
11:00 AM 50.0 °F 42.4 °F 75% 30.12 in - West 9.2 mph 23.0 mph 0.03 in   Unknown
12:00 PM 50.7 °F 40.3 °F 67% 30.14 in - WNW 8.1 mph 23.0 mph 0.01 in   Unknown
1:00 PM 50.7 °F 40.5 °F 68% 30.16 in - WSW 6.9 mph - 0.02 in   Unknown
2:00 PM 51.1 °F 37.0 °F 59% 30.19 in - West 10.4 mph 18.4 mph 0.00 in   Unknown
3:00 PM 50.0 °F 36.9 °F 61% 30.22 in - West 8.1 mph - N/A   Unknown
4:00 PM 48 °F 38 °F 57% 30.25 in - West 10.4 mph - -  
4:00 PM 47.8 °F 37.6 °F 68% 30.25 in - West 9.2 mph 17.3 mph N/A   Unknown
5:00 PM 47.5 °F 37.0 °F 67% 30.28 in - West 4.6 mph - N/A   Unknown
6:00 PM 43.5 °F 37.6 °F 80% 30.32 in - NNE 2.3 mph - N/A   Unknown
7:00 PM 40.6 °F 36.7 °F 86% 30.35 in - ENE 2.3 mph - N/A   Unknown
8:00 PM 36.9 °F 34.9 °F 93% 30.39 in - Calm Calm - N/A   Unknown
9:00 PM 36.0 °F 33.8 °F 92% 30.42 in - NNW 1.2 mph - 0.00 in   Unknown
10:00 PM 36 °F 35 °F 93% 30.45 in - Calm Calm - -  
10:00 PM 35.6 °F 34.7 °F 97% 30.45 in - Calm Calm - N/A   Unknown
11:00 PM 35.6 °F 34.7 °F 97% 30.48 in - Calm Calm - 0.00 in   Unknown